Tracking 31023 objects as of 19-Jul-2025
HD Live streaming from Space Station
objects crossing your sky now

COSMOS 1275 DEB

Track COSMOS 1275 DEB now!
10-day predictions


NORAD ID: 17642
Int'l Code: 1981-053LQ
Perigee: 741.3 km
Apogee: 790.2 km
Inclination: 82.9 °
Period: 100.0 minutes
Semi major axis: 7136 km
RCS: 0.0092 m2 (small)
Launch date: June 4, 1981
Source: Commonwealth of Independent States (former USSR) (CIS)
Launch site: PLESETSK MISSILE AND SPACE COMPLEX (PKMTR)

Note: This is SATELLITE DEBRIS
Your satellite tracking list
Your tracking list is empty




NASA's NSSDC Master Catalog

Two Line Element Set (TLE):
1 17642U 81053LM  25199.96087966  .00003314  00000-0  10407-2 0  9999
2 17642  82.8623  30.0564 0034221  68.7414 291.7427 14.39968851 88799
Source of the keplerian elements: AFSPC